Tracking 22130 objects as of 21-Jan-2021
HD Live streaming from Space Station
objects crossing your sky now

STARLINK-1927

Track STARLINK-1927 now!
10-day predictions
STARLINK-1927 is classified as:


NORAD ID: 47181
Int'l Code: 2020-088BM
Perigee: 385.9 km
Apogee: 388.1 km
Inclination: 53.1 °
Period: 92.1 minutes
Semi major axis: 6758 km
RCS: Unknown
Launch date: November 25, 2020
Source: United States (US)
Launch site: AIR FORCE EASTERN TEST RANGE (AFETR)
aabbcc
Your satellite tracking list
Your tracking list is empty




NASA's NSSDC Master Catalog

Two Line Element Set (TLE):
1 47181U 20088BM  21021.58335648  .00081414  00000-0  88815-3 0  9998
2 47181  53.0549  70.8843 0001594  39.0291 201.3645 15.62693612  1779
Source of the keplerian elements: AFSPC